S51UL-6 Weather Reports


Display with metric or nautical units.
time (UTC)temp
F
wind
direction
speed
MPH
gust
MPH
rain 1hr
in
rain 24hr
in
rain mn
in
humidity
%
barometer
mb
20260831053656 57 135 0.0 0.0 0.10 0.57 0.00 89 1016.0
20260831053156 57 135 0.0 0.0 0.08 0.55 0.00 89 1016.0
20260831052657 57 135 0.0 0.0 0.10 0.55 0.00 88 1016.0
20260831051657 56 135 0.0 0.0 0.16 0.55 0.00 88 1015.8
20260831050658 56 135 0.0 0.0 0.20 0.55 0.00 88 1016.0
20260831050202 56 135 0.0 0.0 0.20 0.55 0.00 88 1015.9
20260831045657 56 135 0.0 0.0 0.20 0.51 0.00 88 1016.2
20260831045157 56 135 0.0 0.0 0.26 0.51 0.00 88 1016.1
20260831044657 56 135 0.0 0.0 0.24 0.47 0.00 88 1015.9
20260831044157 56 135 0.0 0.0 0.24 0.47 0.00 88 1016.1
20260831043658 56 135 0.0 0.0 0.24 0.47 0.00 88 1016.1
20260831043157 56 135 0.0 0.0 0.22 0.45 0.00 88 1016.0
20260831042157 56 135 0.0 0.0 0.16 0.39 0.00 88 1016.1
20260831041657 56 135 0.0 0.0 0.12 0.35 0.00 88 1016.2
20260831041158 56 135 0.0 0.0 0.12 0.35 0.00 88 1016.1
20260831040657 56 135 0.0 0.0 0.12 0.35 0.00 88 1015.9
20260831040200 56 135 0.0 0.0 0.12 0.35 0.00 88 1016.1
20260831035158 56 135 0.0 0.0 0.02 0.24 0.00 88 1016.1
20260831034657 56 135 0.0 0.0 0.00 0.22 0.00 88 1016.0
20260831034157 56 135 0.0 0.0 0.00 0.22 0.00 88 1016.0
20260831033158 56 135 0.0 0.0 0.00 0.22 0.00 87 1016.1
20260831032657 57 135 0.0 0.0 0.00 0.22 0.00 88 1016.1
20260831032158 57 135 0.0 0.0 0.00 0.22 0.00 88 1016.1
20260831031658 57 135 0.0 0.0 0.00 0.22 0.00 88 1016.3
20260831031158 57 135 0.0 0.0 0.00 0.22 0.00 87 1016.2
20260831030659 57 135 0.0 0.0 0.00 0.22 0.00 87 1016.2
20260831025158 57 135 0.0 0.0 0.00 0.22 0.00 87 1016.2
20260831024658 57 135 0.0 0.0 0.00 0.22 0.00 87 1016.2
20260831024343 57 135 0.0 0.0 0.00 0.22 0.00 87 1016.2
20260831024159 57 135 0.0 0.0 0.00 0.22 0.00 87 1016.2
20260831023659 56 135 0.0 0.0 0.00 0.22 0.00 87 1016.1
20260831022658 57 135 0.0 0.0 0.00 0.22 0.00 86 1016.2
20260831022158 57 135 0.0 0.0 0.00 0.22 0.00 86 1016.2
20260831021658 57 135 0.0 0.0 0.00 0.22 0.00 86 1016.2
20260831020159 58 135 0.0 0.0 0.00 0.22 0.00 86 1016.3
20260831015159 57 135 0.0 0.0 0.00 0.22 0.00 86 1016.3
20260831014659 57 135 0.0 0.0 0.00 0.22 0.00 86 1016.2
20260831014159 58 135 0.0 0.0 0.00 0.22 0.00 86 1016.3
20260831012659 58 135 0.0 0.0 0.00 0.22 0.00 86 1016.4
20260831012159 58 135 0.0 0.0 0.00 0.22 0.00 86 1016.3
20260831005659 58 135 0.0 0.0 0.00 0.22 0.00 85 1016.5
20260831004659 58 135 0.0 0.0 0.00 0.22 0.00 85 1016.7
20260831004159 58 135 0.0 0.0 0.00 0.22 0.00 85 1016.6
20260831003200 58 135 0.0 0.0 0.00 0.22 0.00 85 1016.6
20260831002700 58 135 0.0 0.0 0.00 0.22 0.00 85 1016.6
20260831002200 58 135 0.0 0.0 0.00 0.22 0.00 85 1016.6
20260831001700 58 135 0.0 0.0 0.00 0.22 0.00 85 1016.6
20260831001200 59 135 0.0 0.0 0.00 0.22 0.00 85 1016.7
20260831000200 59 135 0.0 0.0 0.00 0.22 0.00 85 1016.6
20260830235700 59 135 0.0 0.0 0.00 0.22 0.00 85 1016.6
20260830235200 59 135 0.0 0.0 0.00 0.22 0.00 85 1016.8
20260830234700 59 135 0.0 0.0 0.00 0.22 0.00 85 1016.7
20260830234200 60 135 0.0 0.0 0.00 0.22 0.00 85 1016.6
20260830233200 60 135 0.0 0.0 0.00 0.24 0.00 84 1016.6
20260830232700 60 135 0.0 0.0 0.00 0.24 0.00 84 1016.7
20260830232200 60 135 0.0 0.0 0.00 0.24 0.00 84 1016.7
20260830231700 60 135 0.0 0.0 0.00 0.24 0.00 84 1016.7
20260830231200 60 135 0.0 0.0 0.00 0.24 0.00 84 1016.7
20260830230701 60 135 0.0 0.0 0.00 0.24 0.00 84 1016.9
20260830230200 60 135 0.0 0.0 0.00 0.24 0.00 84 1016.8
20260830225701 60 135 0.0 0.0 0.00 0.24 0.00 83 1016.9
20260830224701 60 135 0.0 0.0 0.00 0.24 0.00 83 1016.9
20260830224201 60 135 0.0 0.0 0.00 0.24 0.00 82 1017.0
20260830223701 60 135 0.0 0.0 0.00 0.24 0.00 82 1016.8
20260830223201 61 135 0.0 0.0 0.00 0.51 0.00 82 1017.0
20260830222701 61 135 0.0 0.0 0.00 0.51 0.00 82 1017.1
20260830222201 61 135 0.0 0.0 0.00 0.51 0.00 82 1016.8
20260830221701 61 135 0.0 0.0 0.00 0.51 0.00 82 1016.8
20260830221317 61 135 0.0 0.0 0.00 0.51 0.00 82 1016.8
20260830221201 61 135 0.0 0.0 0.00 0.51 0.00 82 1016.8
20260830220701 61 135 0.0 0.0 0.00 0.51 0.00 82 1016.8
20260830220201 62 135 0.0 0.0 0.00 0.51 0.00 82 1016.8
20260830215701 62 135 0.0 0.0 0.00 0.51 0.00 82 1016.9
20260830215201 62 135 0.0 0.0 0.00 0.51 0.00 81 1016.7
20260830214701 62 135 0.0 0.0 0.00 0.51 0.00 81 1017.0
20260830214201 62 135 0.0 0.0 0.00 0.51 0.00 81 1016.8
20260830213702 62 135 0.0 0.0 0.00 0.51 0.00 81 1016.9
20260830213202 62 135 0.0 0.0 0.00 1.18 0.00 81 1017.0
20260830212702 62 135 0.0 0.0 0.00 1.18 0.00 80 1016.9
20260830212202 62 135 0.0 0.0 0.00 1.18 0.00 80 1016.8
20260830211702 62 135 0.0 0.0 0.00 1.18 0.00 80 1016.9
20260830211202 63 135 0.0 0.0 0.00 1.18 0.00 80 1016.9
20260830210702 63 135 0.0 0.0 0.00 1.18 0.00 80 1016.8
20260830210202 63 135 0.0 0.0 0.00 1.18 0.00 79 1016.8
20260830205703 63 135 0.0 0.0 0.00 1.18 0.00 79 1016.8
20260830205203 63 135 0.0 0.0 0.00 1.18 0.00 79 1016.6
20260830204702 63 135 0.0 0.0 0.00 1.18 0.00 79 1016.8
20260830204203 64 135 0.0 0.0 0.00 1.18 0.00 78 1016.8
20260830202703 64 135 0.0 0.0 0.00 1.79 0.00 78 1016.8
20260830202202 64 135 0.0 0.0 0.00 1.79 0.00 77 1016.9
20260830201202 65 135 0.0 0.0 0.00 1.79 0.00 77 1016.7
20260830200704 65 135 0.0 0.0 0.00 1.79 0.00 76 1016.7
20260830200203 65 135 0.0 0.0 0.00 1.79 0.00 76 1016.7
20260830195704 65 135 0.0 0.0 0.00 1.79 0.00 76 1016.7
20260830195203 65 135 0.0 0.0 0.00 1.79 0.00 75 1016.6
20260830194703 66 135 0.0 0.0 0.00 1.79 0.00 75 1016.6
20260830193703 66 135 0.0 0.0 0.00 1.79 0.00 75 1016.6
20260830193203 66 135 0.0 0.0 0.00 2.49 0.00 75 1016.7
20260830192703 67 135 0.0 0.0 0.00 2.49 0.00 74 1016.7
20260830192204 67 135 0.0 0.0 0.00 2.49 0.00 74 1016.6
20260830191703 67 135 0.0 0.0 0.00 2.49 0.00 73 1016.7
20260830191204 67 135 0.0 0.0 0.00 2.49 0.00 73 1016.6
20260830190703 68 135 0.0 0.0 0.00 2.49 0.00 73 1016.5
20260830190203 68 135 0.0 0.0 0.00 2.49 0.00 72 1016.5
20260830185703 68 135 0.0 0.0 0.00 2.49 0.00 71 1016.4
20260830185204 69 135 0.0 0.0 0.00 2.49 0.00 70 1016.3
20260830184703 69 135 0.0 0.0 0.00 2.49 0.00 70 1016.4
20260830184203 69 135 0.0 0.0 0.00 2.49 0.00 70 1016.3
20260830183704 70 135 0.0 0.0 0.00 2.49 0.00 69 1016.3
20260830183204 70 135 0.0 0.0 0.00 2.75 0.00 69 1016.3
20260830182705 70 135 0.0 0.0 0.00 2.75 0.00 68 1016.1
20260830181704 71 135 0.0 0.0 0.00 2.75 0.00 67 1016.1
20260830181204 72 135 0.0 0.0 0.00 2.75 0.00 67 1016.0
20260830180704 72 135 0.0 0.0 0.00 2.75 0.00 66 1016.0
20260830180204 72 135 0.0 0.0 0.00 2.75 0.00 66 1016.0
20260830175705 73 135 0.0 0.0 0.00 2.75 0.00 64 1015.8
20260830175204 74 135 0.0 0.0 0.00 2.75 0.00 64 1015.7
20260830174704 74 135 0.0 0.0 0.00 2.75 0.00 64 1015.7
20260830174204 75 135 0.0 0.0 0.00 2.75 0.00 62 1015.7
20260830173705 75 135 0.0 0.0 0.00 2.75 0.00 61 1015.7
20260830173204 76 135 0.0 0.0 0.00 2.79 0.00 60 1015.6
20260830172704 77 135 0.0 0.0 0.00 2.79 0.00 59 1015.7
20260830172205 77 135 0.0 0.0 0.00 2.79 0.00 58 1015.8
20260830171204 78 135 0.0 0.0 0.00 2.79 0.00 56 1015.6
20260830170707 79 135 0.0 0.0 0.00 2.79 0.00 56 1015.7
20260830170206 80 135 0.0 0.0 0.00 2.79 0.00 55 1015.8
20260830165205 81 135 0.0 0.0 0.00 2.79 0.00 53 1015.7
20260830164705 81 135 0.0 0.0 0.00 2.79 0.00 53 1015.7
20260830164205 81 135 0.0 0.0 0.00 2.79 0.00 53 1015.7
20260830163705 82 158 0.0 0.0 0.00 2.79 0.00 52 1015.8
20260830162705 82 135 0.0 0.0 0.00 2.79 0.00 52 1015.7
20260830162206 82 135 0.0 0.0 0.00 2.79 0.00 51 1015.8
20260830161705 83 135 0.0 0.0 0.00 2.79 0.00 51 1015.7
20260830161205 83 135 0.0 0.0 0.00 2.79 0.00 50 1015.6
20260830160205 83 135 0.0 0.0 0.00 2.79 0.00 50 1015.7
20260830155205 84 135 0.0 0.0 0.00 2.79 0.00 49 1015.8
20260830154705 84 158 0.0 0.0 0.00 2.79 0.00 49 1015.8
20260830154206 84 158 0.0 0.0 0.00 2.79 0.00 48 1015.7
20260830153705 84 158 1.0 4.0 0.00 2.79 0.00 48 1015.9
20260830153206 85 158 2.0 4.0 0.00 2.90 0.00 47 1015.8
20260830152706 85 158 0.0 0.0 0.00 2.90 0.00 47 1015.8
20260830152206 86 158 2.0 6.0 0.00 2.90 0.00 47 1015.8
20260830151706 86 158 0.0 6.0 0.00 2.90 0.00 46 1015.8
20260830151206 87 158 0.0 0.0 0.00 2.90 0.00 47 1015.8
20260830150207 88 135 0.0 0.0 0.00 2.90 0.00 45 1016.0
20260830145706 89 135 0.0 0.0 0.00 2.90 0.00 44 1015.8
20260830145207 89 158 0.0 2.0 0.00 2.90 0.00 43 1015.9
20260830144706 90 135 0.0 2.0 0.00 2.90 0.00 44 1016.0
20260830144206 91 135 0.0 0.0 0.00 2.90 0.00 43 1016.0
20260830143706 91 135 0.0 0.0 0.00 2.90 0.00 42 1015.9
20260830143208 91 135 0.0 0.0 0.00 2.90 0.00 43 1016.0
20260830142706 91 68 0.0 0.0 0.00 2.90 0.00 43 1016.1
20260830142206 91 158 0.0 0.0 0.00 2.90 0.00 42 1016.1
20260830141708 92 135 0.0 0.0 0.00 2.90 0.00 42 1016.1
20260830141207 92 158 0.0 0.0 0.00 2.90 0.00 42 1016.1
20260830140708 92 158 0.0 0.0 0.00 2.90 0.00 42 1016.0
20260830140207 93 135 0.0 0.0 0.00 2.90 0.00 41 1016.3
20260830135707 92 135 0.0 0.0 0.00 2.90 0.00 42 1016.4
20260830135207 92 135 0.0 0.0 0.00 2.90 0.00 42 1016.3
20260830134207 92 135 0.0 0.0 0.00 2.90 0.00 42 1016.5
20260830133707 92 158 0.0 5.0 0.00 2.90 0.00 43 1016.6
20260830132208 92 180 0.0 3.0 0.00 2.92 0.00 43 1016.6
20260830131207 91 45 0.0 0.0 0.00 2.92 0.00 42 1016.9
20260830130708 91 45 0.0 0.0 0.00 2.92 0.00 41 1016.9
20260830130208 92 113 0.0 0.0 0.00 2.92 0.00 42 1016.8
20260830125710 91 135 1.0 3.0 0.00 2.92 0.00 43 1016.9
20260830125207 91 180 0.0 3.0 0.00 2.92 0.00 42 1016.8
20260830124708 91 180 0.0 2.0 0.00 2.92 0.00 40 1016.9
20260830124207 92 180 0.0 2.0 0.00 2.92 0.00 41 1017.0
20260830123707 92 23 0.0 0.0 0.00 2.92 0.00 41 1017.1
20260830123207 92 248 0.0 0.0 0.00 2.92 0.00 42 1017.2
20260830122708 92 45 1.0 3.0 0.00 2.92 0.00 41 1017.3
20260830122208 93 135 1.0 3.0 0.00 2.92 0.00 40 1017.1
20260830121209 93 23 0.0 1.0 0.00 2.92 0.00 41 1017.1
20260830120709 94 23 2.0 6.0 0.00 2.92 0.00 40 1017.5
20260830120209 95 135 0.0 0.0 0.00 2.92 0.00 41 1017.4
20260830115708 94 135 0.0 0.0 0.00 2.92 0.00 42 1017.5
20260830115208 94 135 0.0 0.0 0.00 2.92 0.00 40 1017.4
20260830114709 95 23 0.0 0.0 0.00 2.92 0.00 40 1017.5
20260830113708 95 158 0.0 0.0 0.02 2.92 0.00 40 1017.5
20260830113208 95 158 1.0 5.0 0.02 2.92 0.00 39 1017.5
20260830112208 97 135 0.0 0.0 0.02 2.92 0.00 39 1017.8
20260830111708 97 135 0.0 0.0 0.02 2.92 0.00 41 1017.8
20260830111208 97 135 0.0 0.0 0.02 2.92 0.00 41 1017.8
20260830110209 94 135 0.0 0.0 0.02 2.92 0.00 45 1017.8
20260830105709 93 135 0.0 0.0 0.02 2.92 0.00 46 1017.8
20260830105209 91 45 0.0 0.0 0.02 2.92 0.00 47 1017.9
20260830104709 90 180 0.0 0.0 0.02 2.92 0.00 47 1017.9
20260830104209 90 180 0.0 0.0 0.00 2.90 0.00 47 1017.9
20260830103209 87 158 0.0 0.0 0.00 2.98 0.00 50 1018.0
20260830102709 86 135 0.0 0.0 0.00 2.98 0.00 51 1018.0
20260830102209 86 135 0.0 0.0 0.00 2.98 0.00 51 1018.0
20260830101710 85 135 0.0 0.0 0.00 2.98 0.00 50 1018.1
20260830101210 85 225 0.0 0.0 0.02 2.98 0.00 51 1018.1
20260830100709 85 135 0.0 0.0 0.02 2.98 0.00 52 1018.1
20260830100209 84 45 0.0 0.0 0.08 2.98 0.00 53 1018.3
20260830095710 83 68 0.0 0.0 0.08 2.98 0.00 53 1018.3
20260830095209 83 135 0.0 0.0 0.08 2.98 0.00 53 1018.2
20260830094709 83 135 0.0 0.0 0.08 2.98 0.00 54 1018.4
20260830094210 82 23 0.0 0.0 0.08 2.98 0.00 53 1018.4
20260830093710 82 135 0.0 0.0 0.08 2.98 0.00 53 1018.5
20260830093210 82 135 0.0 0.0 0.08 3.06 0.00 55 1018.6
20260830092710 82 158 0.0 0.0 0.08 3.06 0.00 54 1018.5
20260830092210 81 23 0.0 0.0 0.14 3.06 0.00 54 1018.7
20260830091710 81 45 0.0 0.0 0.16 3.04 0.00 56 1018.6
20260830091210 81 135 0.0 0.0 0.18 3.04 0.00 55 1018.7
20260830090210 80 158 0.0 0.0 0.12 2.98 0.00 56 1018.7
20260830084211 80 158 0.0 0.0 0.12 2.98 0.00 56 1018.8
20260830083711 80 158 0.0 0.0 0.12 2.98 0.00 57 1018.8
20260830083210 80 158 0.0 0.0 0.12 2.98 0.00 56 1018.8
20260830082710 80 90 0.0 0.0 0.12 2.98 0.00 56 1018.9
20260830082210 80 68 0.0 0.0 0.02 2.88 0.00 58 1018.8
20260830081211 80 68 0.0 0.0 0.00 2.86 0.00 60 1018.8
20260830080211 79 68 0.0 0.0 0.00 2.86 0.00 65 1018.8
20260830075211 76 90 0.0 0.0 0.00 2.86 0.00 69 1018.8
20260830074711 74 90 0.0 0.0 0.00 2.86 0.00 73 1018.8
20260830074211 73 68 0.0 0.0 0.00 2.86 0.00 74 1018.8
20260830073212 69 23 0.0 0.0 0.00 2.90 0.00 79 1018.7
20260830072711 68 23 0.0 0.0 0.00 2.90 0.00 79 1018.8
20260830072211 67 23 0.0 0.0 0.00 2.90 0.00 79 1018.8
20260830071711 66 23 0.0 0.0 0.00 2.90 0.00 81 1018.8
20260830071212 65 23 0.0 0.0 0.00 2.90 0.00 81 1018.7
20260830070711 65 23 0.0 0.0 0.00 2.90 0.00 83 1018.7
20260830070211 64 23 0.0 0.0 0.00 2.90 0.00 84 1018.5
20260830065713 63 23 0.0 0.0 0.00 2.90 0.00 85 1018.5
20260830065212 62 23 0.0 0.0 0.00 2.90 0.00 86 1018.5
20260830064712 62 45 0.0 0.0 0.00 2.90 0.00 87 1018.7
20260830064212 61 45 0.0 0.0 0.00 2.90 0.00 88 1018.5
20260830063712 61 45 0.0 0.0 0.00 2.90 0.00 88 1018.5
20260830063212 60 45 0.0 0.0 0.00 2.92 0.00 89 1018.4
20260830062712 60 45 0.0 0.0 0.00 2.92 0.00 89 1018.5
20260830062212 59 45 0.0 0.0 0.00 2.92 0.00 89 1018.6
20260830061712 58 45 0.0 0.0 0.00 2.92 0.00 89 1018.5
20260830060212 57 45 0.0 0.0 0.00 2.92 0.00 89 1018.6
20260830055712 57 45 0.0 0.0 0.00 2.92 0.00 89 1018.6
20260830055212 56 45 0.0 0.0 0.00 2.92 0.00 89 1018.5
20260830054712 56 45 0.0 0.0 0.00 2.92 0.00 89 1018.4
20260830054213 55 90 0.0 0.0 0.00 2.92 0.00 89 1018.4